Showing default

EXPRESS 103, 45985

Orbit data source: Space-Track

EXPRESS 103, 45985 is a payload satellite owned by KosSvyaz (CIS) in GEO that was launched on Thu, 30 Jul 2020 UTC via a PROTON-M/BRIZ-M launch vehicle from the Tyuratam Missile And Space Complex (TTMTR). Payload-class satellites include a variety of spacecraft equipped with specific instruments for various scientific and technological missions. These include communications satellites like Starlink; space stations such as the ISS; scientific satellites like the Hubble; Earth observation satellites from companies like Planet Labs, Umbra, and HawkEye 360; GPS; miniature CubeSats for education and research; and military/defense satellites.

Not visible in the next 10 days
Identifier
45985, 2020-053A
Orbit
GEO
Country
Flag of CISCIS
Related business
Manufacturer
Resehetnev ISS
Mission
Operational Commercial Communications
Bus & Motor
EKSPRESS-1000N, AOCS
Mass
2,280 kg wet, ~1,800 kg dry
Launch date (UTC)
2020-07-30 (5 years ago)
Launch vehicle
PROTON-M/BRIZ-M
Launch site
Tyuratam Missile And Space Complex (TTMTR)
Object type
Payload
Rocket body
Debris
Shape & HBR
Box + 2 Pan, Unknown HBR
Radar Cross Section
16.987 m², Large (>1 m²)

Expand to show TLE details & history
Last TLE update: 10 hours ago

TLE from 10 hours ago
0 EXPRESS 103
1 45985U 20053A   25296.70684367 -.00000269  00000-0  00000+0 0  9993
2 45985   0.0146 249.7168 0000212 238.0023 255.6399  1.00272724 19277
Epoch: 2025-10-23T16:57Z
TLE epoch observation values (Epoch: 2025-10-23T16:57:51.293Z)
Latitude
0.02678°
Longitude
96.49601°
Altitude
35,786.041 km
Speed
3.075 km/s
True Right ascension
01h 33m 17s
True Declination
0° 01' 36"
Sunlit
Object was in daylight at epoch
Visualization orbit readout
Latitude
Unknown
Longitude
Unknown
Altitude
Unknown
Speed
Unknown
Apparent Right ascension
Unknown
Apparent Declination
Unknown
Sunlit
N/A
Visualization observer readout
Local Sidereal Time
22:26:36
Azimuth
Unknown
Elevation
Unknown
Doppler factor
Unknown
Orbital elements
Apogee altitude
35,788.296 km
Perigee altitude
35,786.508 km
Semi-major axis
42,165.539 km
Eccentricity
0.00002
Inclination
0.0146°
RAAN
249.7168°
Arg. of periapsis
238.0023°
True anomaly
255.63755°
Mean anomaly
255.6399°
Eccentric anomaly
255.63872°
Mean motion
0.25067 °/min
Orbital period
1,436.14 mins
BSTAR
0
Loading maneuver chart data...
Computing Atmospheric mass density...
Loading historical data...
Loading historical data...
Loading historical data...
Loading historical data...
Loading historical data...
Loading historical data...
Loading historical data...
Other satellites on launch #53 in the year 2020 (2020-07-30 UTC)

Documentation

Showing up to 5 results
|